SCP
0 0 0 0 -0 -0 -0 -0 -0 -0 -0 -0 0 0 0 0 0 0 0 0 0 0 1 2 2 2 1 1 1 2 2 2 2 2 2 2 2 2 1 1 1 1 1
0 0 0 0 -0 -0 -0 -0 -0 -0 -0 0 0 0 0 0 0 0 0 0 0 0 0 1 2 2 2 1 1 2 2 2 2 2 2 2 2 2 2 2 2 2 2
0 0 0 0 0 -0 -0 -0 -0 -0 0 0 0 0 0 0 0 0 0 0 0 0 0 1 2 2 2 2 2 2 2 2 2 2 2 2 2 2 2 2 2 2 2
0 0 0 0 0 -0 -0 -0 -0 -0 -0 0 0 0 0 0 0 0 0 0 0 0 0 0 1 2 2 2 2 2 2 2 2 2 2 2 2 2 2 2 2 2 2
0 0 0 0 0 -0 0 -0 -0 -0 -0 0 0 0 0 0 0 0 0 0 0 0 0 0 0 1 2 2 2 2 2 2 2 1 2 2 2 2 2 2 2 2 2
0 0 0 0 0 0 0 0 -0 -0 -0 0 0 0 0 0 0 0 0 0 0 0 0 0 0 0 1 2 2 2 2 2 2 2 1 1 2 2 2 2 2 2 2
0 0 0 0 0 0 0 0 0 0 0 0 0 -0 -0 -0 -0 0 0 0 0 0 0 0 0 0 0 1 2 2 2 2 2 2 2 1 1 2 2 2 2 2 2
0 0 0 0 0 0 0 0 0 0 0 0 0 -0 -0 -0 -0 0 0 0 0 -0 0 0 0 0 0 0 1 2 2 3 2 2 2 1 1 1 2 2 2 2 2
0 0 0 0 0 0 0 0 0 0 0 0 0 0 -0 -0 0 0 0 0 0 0 0 0 0 0 0 0 0 1 2 2 2 2 2 2 1 1 1 2 1 1 1
0 0 0 0 0 0 0 0 0 0 0 0 0 0 0 0 0 0 0 0 0 0 0 0 0 0 0 0 0 0 1 2 2 2 3 2 2 1 1 1 1 1 1
0 0 0 0 0 0 0 0 0 0 0 0 0 0 0 0 0 0 0 0 0 0 0 0 0 0 0 0 0 0 1 1 2 2 3 3 2 2 1 1 1 1 1
0 0 0 0 0 0 0 0 0 0 0 0 0 0 0 0 0 0 0 0 0 0 0 0 0 0 0 0 0 0 0 1 1 2 2 2 2 2 2 2 2 1 1
0 0 0 0 0 0 0 0 0 0 0 0 0 0 0 0 0 0 0 0 0 0 0 0 0 0 0 0 0 0 0 0 1 1 2 2 2 2 2 2 2 2 1
0 0 0 0 0 0 0 0 0 0 0 0 0 0 0 0 0 0 0 0 0 0 0 0 0 0 0 0 0 0 0 0 1 1 1 1 1 2 2 2 2 2 1
0 0 0 0 0 0 0 0 0 0 0 0 0 0 0 0 0 0 0 0 0 0 0 0 0 0 0 0 0 0 0 0 0 1 1 1 1 1 1 1 1 1 1
0 0 0 0 0 0 0 0 0 0 0 0 0 0 0 0 0 0 0 0 0 0 0 0 0 0 0 0 0 0 0 0 0 0 0 0 1 1 1 1 1 1 1
0 0 0 0 0 0 0 0 0 0 0 0 0 0 0 0 0 0 0 0 0 0 0 0 0 0 0 0 0 0 0 0 0 0 0 0 0 0 0 0 1 1 1
0 0 0 0 0 0 0 0 0 0 0 0 0 0 0 0 0 0 0 0 0 0 0 0 0 0 0 0 0 0 0 0 0 0 0 0 0 0 0 0 0 0 0
0 0 0 0 0 0 0 0 0 0 0 0 0 0 0 0 0 0 0 0 0 0 0 0 0 0 0 -0 0 0 0 0 0 0 0 0 0 0 0 0 0 0 0
0 0 0 0 0 0 0 0 0 0 0 0 0 0 0 0 0 0 0 0 0 0 0 0 0 0 0 0 0 0 0 0 0 0 0 0 0 0 0 0 0 0 0
0 0 0 0 0 0 0 0 0 0 0 0 0 0 0 0 0 0 0 0 0 0 0 0 0 0 0 0 0 0 0 0 0 0 0 0 0 0 0 0 0 0 0
0 0 0 0 0 0 0 0 0 0 0 0 0 0 0 0 0 0 0 0 0 0 0 0 0 0 0 0 0 0 0 0 0 0 0 0 0 0 0 0 0 0 0
0 0 0 0 0 0 0 0 0 0 0 0 0 0 0 0 0 0 0 0 0 0 0 0 0 0 0 0 0 0 0 0 0 0 0 0 0 0 0 0 0 0 0
0 0 0 0 0 0 0 0 0 0 0 0 0 0 0 0 0 0 0 0 0 0 0 0 0 0 0 0 0 0 0 0 0 0 0 0 0 0 0 0 0 0 0
0 0 0 0 0 0 0 0 0 -0 0 0 0 0 0 0 0 0 0 0 0 0 0 0 0 0 0 0 0 0 0 0 0 0 0 0 0 0 0 0 0 0 0
0 0 0 0 0 0 0 0 0 -0 0 0 0 0 0 0 0 0 0 0 0 0 0 0 0 0 0 0 0 0 0 0 0 0 0 0 0 0 0 0 0 0 0
Wind_Speed
8 8 8 9 10 9 11 11 11 13 14 14 13 15 15 15 14 12 9 19 22 22 21 22 24 25 25 24 23 24 24 23 22 21 20 19 19 18 18 19 18 18 18
8 9 9 8 9 10 10 10 12 11 11 12 14 15 15 14 12 14 12 13 19 22 21 21 22 24 24 24 23 23 24 25 24 22 21 20 20 19 19 19 18 18 18
9 9 9 8 9 10 11 11 11 10 11 11 14 15 13 13 14 15 14 11 10 16 20 20 19 22 24 23 22 22 22 24 25 24 22 21 20 20 20 19 18 18 18
11 9 8 8 9 9 9 11 10 11 11 11 11 12 12 13 16 15 14 12 9 9 12 18 19 20 23 23 22 21 20 22 24 25 24 23 22 21 21 20 19 19 18
12 10 7 7 10 8 8 11 11 11 12 12 12 12 11 12 14 14 14 14 11 9 7 12 17 17 20 22 22 22 21 20 22 26 26 24 23 22 21 20 19 19 19
12 10 7 9 10 9 9 10 12 12 11 12 14 14 13 13 12 10 11 10 10 9 7 8 8 10 16 20 20 20 21 21 21 23 26 27 25 23 22 21 20 20 20
12 10 9 9 9 9 10 12 12 13 11 11 12 14 12 10 10 6 6 8 8 10 9 7 6 7 7 13 17 18 20 21 22 22 25 28 28 26 23 21 21 21 21
11 11 10 9 9 9 10 11 12 10 11 10 10 12 8 7 5 8 6 6 7 9 10 9 7 7 6 5 8 16 18 20 21 22 23 27 29 28 26 23 22 22 22
10 10 10 9 9 8 9 11 11 12 12 11 8 7 7 6 12 7 5 4 6 8 8 9 9 10 9 6 7 11 16 19 21 22 23 25 28 29 28 25 24 23 22
9 10 11 10 9 9 9 11 11 11 12 11 9 7 8 9 8 9 7 4 7 9 8 9 10 9 9 7 8 12 14 17 21 22 23 25 28 30 30 27 25 23 21
8 10 11 9 10 9 10 11 11 11 10 11 10 9 9 8 8 8 14 11 9 6 7 9 8 7 8 8 7 10 13 16 20 21 21 23 27 30 30 29 27 25 23
6 9 12 9 9 9 10 11 10 12 11 12 11 9 9 7 7 7 11 14 14 10 10 8 8 7 6 6 9 13 14 16 18 18 18 19 23 27 28 28 27 25 24
8 10 11 9 9 9 11 10 11 11 12 13 11 9 8 8 8 9 10 12 14 12 8 7 5 5 7 6 7 14 13 16 16 17 17 16 18 21 23 25 26 26 26
10 10 11 11 11 11 12 10 10 11 11 11 13 12 8 8 8 8 9 10 12 11 7 7 6 6 5 5 8 14 9 14 15 15 15 15 16 17 19 22 24 26 25
11 12 13 12 11 11 11 11 9 11 12 11 11 11 9 7 8 8 9 9 10 12 12 6 4 4 5 6 10 10 10 11 12 13 14 14 15 16 17 18 19 22 24
12 13 13 12 12 12 11 10 11 11 12 12 10 11 10 8 8 8 8 9 9 10 12 7 6 8 10 10 15 11 12 15 11 11 12 13 13 14 14 16 17 18 20
12 13 13 13 14 13 12 11 12 13 13 13 12 11 11 11 8 8 8 9 9 9 12 11 8 8 9 9 9 9 10 8 5 8 10 12 12 12 12 13 14 16 19
12 13 13 14 15 14 13 13 13 13 13 13 12 11 10 9 10 9 8 8 8 8 10 12 8 7 9 8 7 9 10 8 5 6 9 10 11 11 11 12 12 14 16
13 14 14 15 15 15 15 14 13 13 11 10 9 8 9 9 10 8 8 7 7 8 7 9 8 5 5 5 6 8 9 6 5 4 6 8 10 12 11 12 12 13 15
12 13 15 16 16 17 16 14 11 9 6 6 6 7 8 9 10 10 8 9 9 8 8 7 6 5 4 4 3 5 6 4 3 1 3 4 7 11 12 13 13 13 14
14 14 15 17 18 15 12 8 5 5 5 6 7 7 9 14 19 15 11 10 10 9 8 7 6 4 3 2 2 3 5 4 3 1 2 2 3 4 6 10 12 13 14
13 14 15 17 19 16 21 24 18 12 11 10 10 9 10 11 17 21 22 21 18 13 11 9 7 6 5 4 3 2 3 4 3 2 2 2 2 3 4 5 10 14 15
11 13 14 15 17 21 28 27 26 15 13 12 11 10 11 13 13 9 16 19 18 22 20 12 9 9 8 7 7 4 3 3 2 1 2 2 2 2 2 4 13 16 17
9 9 11 14 15 20 27 25 23 13 11 12 12 12 11 12 14 14 11 11 10 12 16 11 9 10 10 9 7 6 5 4 2 1 2 3 2 2 2 3 12 17 20
7 8 10 12 14 17 25 23 19 8 9 11 12 14 14 12 24 24 15 13 12 11 16 21 20 18 19 19 13 5 3 3 2 1 1 3 3 4 4 4 9 21 26
8 10 10 10 12 12 23 23 18 8 9 9 9 12 19 21 25 25 14 13 14 13 13 14 15 16 13 14 17 9 5 3 1 2 0 3 4 5 5 5 6 11 18
Wind_Direction
352 348 344 339 336 338 336 330 328 328 330 327 325 325 321 317 310 308 308 308 309 305 302 280 250 234 226 220 213 207 203 201 201 200 195 192 190 189 189 188 186 184 183
349 346 340 336 338 337 331 327 322 325 324 322 321 320 315 311 308 309 304 303 305 304 305 297 259 236 227 222 217 212 207 204 202 200 197 194 190 189 189 189 187 185 185
348 344 336 337 339 334 330 328 321 324 319 320 317 315 311 310 308 306 302 296 296 300 299 304 280 246 232 225 220 216 212 210 206 200 197 195 191 188 188 187 186 186 185
347 341 334 338 336 334 333 328 328 325 320 317 314 310 308 307 305 300 296 292 290 290 294 296 296 266 243 232 225 222 218 215 211 204 198 195 191 188 187 185 184 184 184
345 340 332 337 337 335 332 330 330 324 320 317 312 308 307 302 296 295 295 294 288 282 280 288 291 284 259 242 232 226 224 220 217 209 201 197 193 190 187 185 184 184 184
343 338 337 337 337 335 333 329 326 324 318 316 314 310 301 291 285 285 292 299 295 289 281 280 283 285 269 249 239 231 228 226 222 214 203 197 195 191 189 187 185 185 185
340 336 341 334 335 333 329 327 327 322 321 318 316 313 298 279 276 291 311 312 325 341 323 295 277 272 274 259 244 237 232 229 226 219 208 200 194 190 189 189 188 186 186
336 340 337 332 331 329 326 328 325 323 320 323 316 313 313 309 333 314 299 306 338 334 327 327 318 299 276 266 250 237 233 233 230 223 214 204 195 189 188 189 193 191 187
330 329 329 327 327 326 324 324 321 326 318 313 308 306 311 319 325 297 291 315 336 325 326 325 333 331 319 281 258 241 230 230 232 227 217 209 200 192 189 190 193 195 189
323 327 326 324 325 323 321 320 325 316 314 311 310 293 293 301 300 309 309 313 316 318 318 327 326 319 317 312 273 251 236 227 229 229 222 213 206 199 192 191 194 195 191
318 324 323 323 323 321 318 316 317 315 313 307 306 303 298 293 278 290 300 311 315 306 311 310 304 303 303 301 295 264 245 234 228 226 224 217 211 205 198 193 193 193 190
317 319 322 321 319 318 317 315 315 312 309 306 304 300 300 299 301 299 295 303 305 307 306 296 291 289 292 298 303 296 262 240 228 220 219 217 212 209 204 196 192 192 189
324 317 321 317 316 315 314 314 313 309 307 305 305 301 299 298 298 296 294 296 297 302 297 290 281 295 300 306 303 301 274 244 228 216 211 212 211 209 207 200 194 191 191
319 314 318 314 312 313 315 311 308 306 305 304 304 304 300 298 296 294 292 295 295 295 290 282 295 277 283 301 314 319 293 251 226 215 207 205 205 205 206 204 197 192 191
319 321 315 311 310 310 308 308 304 304 304 301 302 300 297 295 294 291 287 281 284 292 296 293 291 306 331 324 325 328 315 279 233 211 203 199 200 201 201 202 200 196 191
317 315 314 312 310 310 306 305 304 302 302 300 300 299 298 295 293 288 285 281 274 276 279 285 294 308 314 310 311 321 312 303 252 210 195 191 192 195 196 197 198 197 193
316 316 317 314 312 309 307 305 302 301 300 301 303 302 302 299 295 291 287 280 275 274 277 284 282 287 288 290 300 306 305 299 270 215 190 182 184 187 189 191 193 192 190
317 319 319 316 313 312 308 303 299 299 297 298 301 304 308 311 309 302 296 290 285 278 279 284 286 280 275 279 290 297 302 295 272 221 188 179 180 184 186 189 190 189 186
321 322 322 319 317 313 308 300 293 290 290 294 303 314 319 327 330 327 323 323 315 304 291 284 284 277 271 272 279 288 289 284 269 224 191 183 184 186 188 190 190 188 186
327 326 326 324 320 314 307 297 292 292 295 310 323 331 339 347 349 343 345 349 338 327 316 300 285 277 268 254 242 266 280 277 266 229 177 172 184 189 191 192 192 188 186
338 333 332 332 331 327 323 333 343 15 23 7 359 356 359 14 10 7 7 5 356 351 347 336 316 296 285 268 230 235 257 265 260 212 163 165 167 176 187 195 192 188 185
338 337 338 337 341 347 17 43 49 37 31 22 12 1 3 13 16 10 10 13 11 7 4 356 343 333 332 330 316 274 247 236 226 196 148 154 154 170 178 187 186 182 180
338 340 340 345 347 354 24 42 43 36 28 19 11 7 10 7 23 9 5 10 8 9 12 5 353 344 337 338 328 308 274 246 223 180 131 139 125 146 144 176 174 171 167
338 337 339 347 350 356 20 38 35 27 21 16 9 5 8 1 15 21 3 3 5 3 2 2 355 347 344 342 324 295 291 289 284 357 105 128 116 100 85 124 157 154 148
335 337 344 347 350 350 10 34 36 10 14 9 7 6 11 9 12 20 11 2 4 1 359 1 3 2 360 356 359 332 288 236 191 131 50 114 114 88 64 72 125 133 132
343 345 347 346 346 345 4 26 41 20 14 7 6 3 7 16 13 18 15 4 6 1 353 352 356 356 356 353 1 1 338 302 200 142 148 117 121 111 82 45 87 112 119